Weather History for Nantucket, MA

Change the Weather History Date:

Monday, January 21, 2013

  Actual Average Record
Temperature  
Mean Temperature 30 °F -  
Max Temperature 32 °F 37 °F 53 °F (1979)
Min Temperature 27 °F 22 °F 2 °F (1970)
Degree Days  
Heating Degree Days 36    
Moisture  
Dew Point 21 °F    
Average Humidity 72    
Maximum Humidity 100    
Minimum Humidity 43    
Precipitation  
Precipitation 0.13 in - - ()
Sea Level Pressure  
Sea Level Pressure 29.95 in    
Wind  
Wind Speed 11 mph (NW)    
Max Wind Speed 18 mph    
Max Gust Speed 26 mph    
Visibility 6 miles    
Events Snow    
Averages and records for this station are not official NWS values.
T = Trace of Precipitation, MM = Missing Value Source: NWS Daily Summary

Daily Weather History Graph

Daily Weather History Graph

Search for Another Location

Airport:

Trip Planner

Search our weather history database for the weather conditions in past years. The results will help you decide how hot, cold, wet, or windy it might be!

Date:

Astronomy

Jan. 21, 2013 Rise Set
Actual Time 7:00 AM EST 4:43 PM EST
Civil Twilight 6:30 AM EST 5:13 PM EST
Nautical Twilight 5:56 AM EST 5:47 PM EST
Astronomical Twilight 5:23 AM EST 6:19 PM EST
Moon 12:20 PM EST (1/21) 2:25 AM EST (1/21)
Length of Visible Light 10h 43m
Length of Day
9h 43m
Waxing Gibbous, 75% of the Moon is Illuminated
Jan 21
Waxing Gibbous
Jan 26
Full
Feb 3
Last Quarter
Feb 10
New
Feb 17
First Quarter

Hourly Weather History & Observations

Time (EST) Temp. Windchill Dew Point Humidity Pressure Visibility Wind Dir Wind Speed Gust Speed Precip Events Conditions
12:53 AM 32.0 °F 20.5 °F 15.1 °F 50% 29.94 in 10.0 mi NW 18.4 mph 24.2 mph N/A   Clear
1:53 AM 30.9 °F 19.4 °F 12.0 °F 46% 29.98 in 10.0 mi WNW 17.3 mph 26.5 mph N/A   Clear
2:53 AM 30.0 °F 19.5 °F 10.9 °F 45% 30.00 in 10.0 mi WNW 13.8 mph - N/A   Clear
3:53 AM 28.9 °F 19.8 °F 10.9 °F 47% 30.01 in 10.0 mi WNW 10.4 mph - N/A   Clear
4:53 AM 28.9 °F 18.2 °F 10.9 °F 47% 30.03 in 10.0 mi NW 13.8 mph - N/A   Clear
5:53 AM 28.0 °F 17.5 °F 10.9 °F 49% 30.04 in 10.0 mi NW 12.7 mph 18.4 mph N/A   Clear
6:53 AM 27.0 °F 16.7 °F 12.0 °F 53% 30.07 in 10.0 mi NNW 11.5 mph - N/A   Clear
7:53 AM 27.0 °F 18.0 °F 12.0 °F 53% 30.10 in 10.0 mi NNW 9.2 mph - N/A   Clear
8:53 AM 28.0 °F 17.0 °F 9.0 °F 45% 30.11 in 10.0 mi NNW 13.8 mph - N/A   Clear
9:53 AM 28.9 °F 21.9 °F 10.0 °F 45% 30.11 in 10.0 mi WNW 6.9 mph - N/A   Clear
10:53 AM 30.0 °F 22.4 °F 10.0 °F 43% 30.10 in 10.0 mi North 8.1 mph - N/A   Clear
11:53 AM 30.9 °F 24.3 °F 12.0 °F 46% 30.05 in 10.0 mi NNW 6.9 mph - N/A   Scattered Clouds
12:53 PM 30.0 °F 23.2 °F 12.9 °F 49% 30.03 in 10.0 mi SSW 6.9 mph - N/A   Clear
1:53 PM 30.0 °F 26.5 °F 14.0 °F 51% 30.01 in 10.0 mi South 3.5 mph - N/A   Mostly Cloudy
2:53 PM 28.9 °F 23.9 °F 15.1 °F 56% 30.00 in 10.0 mi South 4.6 mph - N/A   Mostly Cloudy
3:53 PM 30.0 °F 24.1 °F 19.0 °F 64% 29.97 in 10.0 mi SSE 5.8 mph - N/A   Overcast
4:53 PM 30.9 °F 21.7 °F 21.0 °F 67% 29.95 in 7.0 mi SSE 11.5 mph - 0.00 in Snow Light Snow
5:31 PM 30.2 °F 21.3 °F 24.8 °F 80% 29.93 in 2.5 mi SSE 10.4 mph - 0.00 in Snow Light Snow
5:46 PM 30.2 °F 22.6 °F 24.8 °F 80% 29.93 in 1.8 mi SSE 8.1 mph - 0.00 in Snow Light Snow
5:53 PM 30.0 °F 21.1 °F 26.1 °F 85% 29.93 in 1.8 mi SSE 10.4 mph - 0.00 in Snow Light Snow
6:17 PM 30.2 °F 20.8 °F 28.4 °F 93% 29.92 in 1.8 mi South 11.5 mph - 0.00 in Snow Light Snow
6:38 PM 30.2 °F 21.9 °F 28.4 °F 93% 29.91 in 1.5 mi South 9.2 mph - 0.00 in Snow Light Snow
6:53 PM 30.9 °F 22.2 °F 30.0 °F 96% 29.91 in 1.2 mi South 10.4 mph - 0.00 in Snow Light Snow
7:53 PM 32.0 °F 27.5 °F 30.0 °F 92% 29.90 in 1.0 mi SW 4.6 mph - 0.02 in Snow Light Snow
8:53 PM 30.9 °F - 30.9 °F 100% 29.86 in 1.0 mi Calm Calm - 0.05 in Snow Light Snow
9:00 PM 30.2 °F 25.4 °F 30.2 °F 100% 29.86 in 1.2 mi North 4.6 mph - 0.00 in Snow Light Snow
9:44 PM 30.2 °F 26.7 °F 30.2 °F 100% 29.82 in 2.0 mi NE 3.5 mph - 0.01 in Snow Light Snow
9:53 PM 30.9 °F 26.2 °F 30.0 °F 96% 29.82 in 1.8 mi NE 4.6 mph - 0.02 in Snow Light Snow
10:11 PM 30.2 °F 25.4 °F 30.2 °F 100% 29.80 in 1.5 mi East 4.6 mph - 0.00 in Snow Light Snow
10:19 PM 30.2 °F 25.4 °F 30.2 °F 100% 29.80 in 1.8 mi East 4.6 mph - 0.00 in Snow Light Snow
10:53 PM 30.9 °F 26.2 °F 30.0 °F 96% 29.78 in 1.2 mi ENE 4.6 mph - 0.02 in Snow Light Snow
11:13 PM 30.2 °F 26.7 °F 30.2 °F 100% 29.78 in 1.2 mi NE 3.5 mph - 0.01 in Snow Light Snow
11:53 PM 30.9 °F 20.7 °F 30.0 °F 96% 29.74 in 1.2 mi North 13.8 mph - 0.02 in Snow Light Snow